Flag for U.S.A. Weather past 2 weeks in Moreno Valley, California, U.S.A.

Now
98 °F

Sunny.


Feels Like: 98 °F
Forecast: 74 / 95 °F
Wind: 12 mph from Northwest

Location: Riverside / March Air Force Base

Current Time: Sep 17, 2014 at 3:27:59 PM

Latest Report: Sep 17, 2014 at 2:58 PM


Visibility: 10 mi

Pressure: 29.70 "Hg

Humidity: 30%

Dew point: 61 °F

Location of Moreno ValleyLocation

Historic Weather in Moreno Valley — Graph

°F

Moreno Valley temperature yesterday

Maximum temperature yesterday: 102 °F (at 1:58 PM)
Minimum temperature yesterday: 74 °F (at 5:58 AM)
Average temperature yesterday: 87 °F

Past Weeks' High & Low Weather Summary

 TemperatureHumidityPressure
High106 °F (Sep 15, 1:58 PM)100% (Sep 3, 3:58 AM)29.98 "Hg (Sep 3, 3:58 AM)
Low59 °F (Sep 10, 4:58 AM)13% (Sep 13, 11:58 AM)29.68 "Hg (Sep 14, 3:58 PM)
Average81 °F45%29.81 "Hg
* Reported Sep 2 1:58 PM — Sep 17 1:58 PM, Moreno Valley, Weather by CustomWeather, © 2014

Note: Actual official high and low records may vary slightly from our data, if they occured in-between our weather recording intervals... More about our weather records

Advertising

Moreno Valley weather history for previous 24 hours

 ConditionsComfort  
Time TempWeatherWind HumidityBarometerVisibility
1:58 PM
Sep 17
98 °FSunny.9 mph29%29.71 "Hg10 mi
12:58 PM96 °FSunny.7 mph32%29.73 "Hg10 mi
11:58 AM94 °FSunny.6 mph35%29.76 "Hg10 mi
10:58 AM91 °FSunny.8 mph40%29.77 "Hg10 mi
9:58 AM89 °FSunny.5 mph43%29.78 "Hg10 mi
8:58 AM85 °FSunny.No wind50%29.78 "Hg10 mi
7:58 AM82 °FSunny.1 mph57%29.77 "Hg10 mi
6:58 AM78 °FClear.2 mph63%29.76 "Hg10 mi
5:58 AM78 °FClear.2 mph63%29.75 "Hg10 mi
4:58 AM82 °FClear.No wind56%29.75 "Hg10 mi
3:58 AM82 °FClear.No wind58%29.75 "Hg10 mi
2:58 AM83 °FClear.6 mph56%29.74 "Hg10 mi
1:58 AM84 °FClear.8 mph55%29.75 "Hg10 mi
12:58 AM85 °FClear.5 mph54%29.76 "Hg10 mi
11:58 PM
Sep 16
86 °FPassing clouds.10 mph51%29.77 "Hg10 mi
10:58 PM87 °FClear.14 mph48%29.77 "Hg10 mi
9:58 PM85 °FClear.2 mph43%29.77 "Hg10 mi
8:58 PM83 °FClear.No wind41%29.77 "Hg10 mi
7:58 PM86 °FPassing clouds.2 mph36%29.75 "Hg10 mi
6:58 PM89 °FSunny.No wind33%29.75 "Hg10 mi
5:58 PM90 °FSunny.6 mph33%29.74 "Hg10 mi
4:58 PM90 °FPartly sunny.5 mph32%29.75 "Hg10 mi
3:58 PM86 °FThundershowers. Partly sunny.12 mph35%29.74 "Hg10 mi
Weather by CustomWeather, © 2014

See weather overviewHow to use our weather pages